GW2606 Weather Reports


time (UTC)temp
F
wind
direction
speed
knots
gust
knots
rain 1hr
in
rain 24hr
in
rain mn
in
humidity
%
barometer
mb
20260504033537 72 113 4.3 8.7 0.00 0.00 0.00 49 1015.7
20260504033046 72 144 4.3 7.8 0.00 0.00 0.00 49 1015.6
20260504032535 72 118 4.3 7.8 0.00 0.00 0.00 49 1015.6
20260504032037 73 130 4.3 8.7 0.00 0.00 0.00 48 1015.8
20260504031545 73 132 4.3 8.7 0.00 0.00 0.00 48 1015.9
20260504031037 73 148 4.3 8.7 0.00 0.00 0.00 48 1016.0
20260504030534 73 151 3.5 8.7 0.00 0.00 0.00 47 1016.0
20260504030045 73 132 4.3 8.7 0.00 0.00 0.00 47 1015.8
20260504025536 73 148 5.2 9.6 0.00 0.00 0.00 47 1015.8
20260504025038 73 146 5.2 9.6 0.00 0.00 0.00 47 1015.8
20260504024548 73 190 5.2 9.6 0.00 0.00 0.00 46 1015.8
20260504024035 74 159 4.3 8.7 0.00 0.00 0.00 46 1015.7
20260504023535 74 145 4.3 10.4 0.00 0.00 0.00 46 1015.8
20260504023048 74 147 5.2 10.4 0.00 0.00 0.00 46 1015.8
20260504022542 74 143 4.3 13.0 0.00 0.00 0.00 45 1015.6
20260504022036 74 130 6.1 13.0 0.00 0.00 0.00 45 1015.6
20260504021551 74 154 5.2 10.4 0.00 0.00 0.00 45 1015.7
20260504021035 74 146 6.1 10.4 0.00 0.00 0.00 44 1015.6
20260504020535 75 153 4.3 8.7 0.00 0.00 0.00 44 1015.6
20260504020049 75 125 5.2 9.6 0.00 0.00 0.00 44 1015.4
20260504015535 75 157 4.3 9.6 0.00 0.00 0.00 44 1015.3
20260504015035 75 134 5.2 12.2 0.00 0.00 0.00 44 1015.3
20260504014600 75 146 5.2 12.2 0.00 0.00 0.00 43 1015.2
20260504014034 75 154 6.1 11.3 0.00 0.00 0.00 44 1015.1
20260504013534 75 149 5.2 11.3 0.00 0.00 0.00 43 1015.1
20260504013049 75 140 6.1 11.3 0.00 0.00 0.00 43 1015.2
20260504012539 75 134 4.3 9.6 0.00 0.00 0.00 43 1015.3
20260504012035 76 153 5.2 12.2 0.00 0.00 0.00 42 1015.3
20260504011548 76 145 6.1 12.2 0.00 0.00 0.00 42 1015.4
20260504011036 76 120 6.1 11.3 0.00 0.00 0.00 41 1015.3
20260504010536 76 148 6.1 12.2 0.00 0.00 0.00 41 1015.3
20260504010054 76 157 7.0 12.2 0.00 0.00 0.00 41 1015.3
20260504005537 76 152 6.1 12.2 0.00 0.00 0.00 41 1015.3
20260504005035 77 150 7.8 13.9 0.00 0.00 0.00 41 1015.4
20260504004552 77 135 6.1 13.9 0.00 0.00 0.00 41 1015.4
20260504004036 77 155 7.8 13.9 0.00 0.00 0.00 40 1015.4
20260504003538 77 146 8.7 13.9 0.00 0.00 0.00 40 1015.3
20260504003055 77 138 9.6 13.9 0.00 0.00 0.00 40 1015.3
20260504002535 78 157 7.8 15.6 0.00 0.00 0.00 40 1015.4
20260504002035 78 136 7.8 15.6 0.00 0.00 0.00 40 1015.4
20260504001602 78 148 9.6 15.6 0.00 0.00 0.00 40 1015.2
20260504001038 78 157 7.8 14.8 0.00 0.00 0.00 40 1015.2
20260504000538 78 136 9.6 14.8 0.00 0.00 0.00 40 1015.4
20260504000108 78 122 7.0 16.5 0.00 0.00 0.00 41 1015.4
20260503235538 78 158 9.6 16.5 0.00 0.00 0.00 40 1015.5
20260503235040 78 178 7.8 14.8 0.00 0.00 0.00 41 1015.5
20260503234552 78 178 8.7 14.8 0.00 0.00 0.00 41 1015.4
20260503234039 78 148 7.8 14.8 0.00 0.00 0.00 40 1015.5
20260503233537 79 142 8.7 13.0 0.00 0.00 0.00 41 1015.7
20260503233048 79 156 7.8 13.0 0.00 0.00 0.00 41 1015.6
20260503232537 79 137 8.7 13.9 0.00 0.00 0.00 40 1015.5
20260503232037 79 154 7.8 15.6 0.00 0.00 0.00 41 1015.5
20260503231548 79 130 7.8 15.6 0.00 0.00 0.00 41 1015.5
20260503231038 79 169 7.8 15.6 0.00 0.00 0.00 41 1015.6
20260503230537 79 183 8.7 16.5 0.00 0.00 0.00 40 1015.7
20260503230047 79 170 7.8 16.5 0.00 0.00 0.00 42 1015.7
20260503225538 79 143 9.6 15.6 0.00 0.00 0.00 40 1015.6
20260503225035 79 134 7.8 13.0 0.00 0.00 0.00 41 1015.7
20260503224556 79 134 8.7 14.8 0.00 0.00 0.00 40 1015.8
20260503224035 79 170 8.7 15.6 0.00 0.00 0.00 40 1015.9
20260503223534 79 156 9.6 15.6 0.00 0.00 0.00 39 1015.8
20260503223050 79 134 8.7 13.9 0.00 0.00 0.00 40 1015.9
20260503222537 79 155 8.7 16.5 0.00 0.00 0.00 39 1015.9
20260503222040 79 140 10.4 16.5 0.00 0.00 0.00 39 1015.9
20260503221550 79 170 8.7 16.5 0.00 0.00 0.00 39 1015.8
20260503221036 79 162 8.7 18.2 0.00 0.00 0.00 39 1016.0
20260503220533 80 178 9.6 18.2 0.00 0.00 0.00 39 1016.0
20260503220052 80 142 7.0 17.4 0.00 0.00 0.00 38 1016.0
20260503215537 80 149 11.3 17.4 0.00 0.00 0.00 38 1016.1
20260503215036 80 148 6.1 15.6 0.00 0.00 0.00 40 1016.1
20260503214546 79 171 7.8 19.1 0.00 0.00 0.00 40 1016.2
20260503214034 79 149 11.3 19.1 0.00 0.00 0.00 38 1016.3
20260503213535 80 143 7.0 19.1 0.00 0.00 0.00 39 1016.4
20260503213048 79 144 9.6 19.1 0.00 0.00 0.00 37 1016.5
20260503212537 79 127 8.7 18.2 0.00 0.00 0.00 38 1016.5
20260503212037 79 165 9.6 18.2 0.00 0.00 0.00 38 1016.8
20260503211545 79 150 8.7 14.8 0.00 0.00 0.00 38 1017.0
20260503211033 80 178 7.8 15.6 0.00 0.00 0.00 38 1017.1
20260503210537 79 176 8.7 16.5 0.00 0.00 0.00 39 1017.3
20260503210042 79 118 8.7 18.2 0.00 0.00 0.00 39 1017.4
20260503205537 80 146 7.0 18.2 0.00 0.00 0.00 40 1017.6
20260503205035 80 155 7.8 15.6 0.00 0.00 0.00 39 1017.8
20260503204544 79 158 7.8 15.6 0.00 0.00 0.00 38 1017.7
20260503204036 79 128 7.0 15.6 0.00 0.00 0.00 39 1017.7
20260503203539 79 140 7.0 13.9 0.00 0.00 0.00 39 1017.9
20260503203049 79 155 8.7 13.9 0.00 0.00 0.00 38 1018.1
20260503202534 79 162 4.3 14.8 0.00 0.00 0.00 39 1018.1
20260503202034 79 174 8.7 15.6 0.00 0.00 0.00 38 1018.2
20260503201551 79 156 8.7 15.6 0.00 0.00 0.00 39 1018.4
20260503201038 79 166 7.0 14.8 0.00 0.00 0.00 36 1018.5
20260503200537 79 187 7.8 14.8 0.00 0.00 0.00 38 1018.8
20260503200050 79 200 7.0 15.6 0.00 0.00 0.00 38 1018.9
20260503195534 79 194 7.8 15.6 0.00 0.00 0.00 38 1019.0
20260503195034 79 180 6.1 13.0 0.00 0.00 0.00 37 1019.2
20260503194545 78 155 6.1 13.9 0.00 0.00 0.00 39 1019.3
20260503194035 78 129 7.0 13.9 0.00 0.00 0.00 38 1019.1
20260503193535 78 188 7.0 13.0 0.00 0.00 0.00 39 1019.2
20260503193047 78 170 7.8 15.6 0.00 0.00 0.00 39 1019.3
20260503192535 78 134 9.6 15.6 0.00 0.00 0.00 40 1019.4
20260503192034 78 116 7.0 14.8 0.00 0.00 0.00 39 1019.4
20260503191549 77 143 7.0 14.8 0.00 0.00 0.00 42 1019.4
20260503191036 78 160 7.0 14.8 0.00 0.00 0.00 40 1019.6
20260503190534 78 202 7.8 13.9 0.00 0.00 0.00 42 1019.6
20260503190052 77 138 7.0 13.9 0.00 0.00 0.00 42 1019.7
20260503185534 77 170 7.0 13.9 0.00 0.00 0.00 42 1019.9
20260503185036 76 166 8.7 17.4 0.00 0.00 0.00 41 1020.0
20260503184544 77 143 9.6 17.4 0.00 0.00 0.00 42 1020.1
20260503184034 77 191 7.0 13.9 0.00 0.00 0.00 44 1020.2
20260503183534 77 176 8.7 15.6 0.00 0.00 0.00 44 1020.3
20260503183102 76 161 7.0 15.6 0.00 0.00 0.00 43 1020.3
20260503182536 76 155 8.7 17.4 0.00 0.00 0.00 43 1020.3
20260503182035 76 165 6.1 17.4 0.00 0.00 0.00 45 1020.5
20260503181613 76 116 7.8 14.8 0.00 0.00 0.00 45 1020.4
20260503181035 76 196 7.8 15.6 0.00 0.00 0.00 46 1020.7
20260503180534 75 171 9.6 15.6 0.00 0.00 0.00 45 1020.8
20260503180045 75 147 7.8 13.0 0.00 0.00 0.00 47 1020.9
20260503175535 75 142 7.0 13.0 0.00 0.00 0.00 47 1021.0
20260503175034 75 164 6.1 12.2 0.00 0.00 0.00 49 1021.0
20260503174553 75 184 6.1 12.2 0.00 0.00 0.00 47 1021.1
20260503174034 75 147 7.0 17.4 0.00 0.00 0.00 45 1021.4
20260503173537 75 128 8.7 17.4 0.00 0.00 0.00 46 1021.4
20260503173054 75 126 7.0 16.5 0.00 0.00 0.00 47 1021.5
20260503172538 75 169 7.8 16.5 0.00 0.00 0.00 47 1021.6
20260503172038 74 145 7.0 13.9 0.00 0.00 0.00 46 1021.6
20260503171547 74 163 8.7 15.6 0.00 0.00 0.00 47 1021.8
20260503171037 74 161 7.8 15.6 0.00 0.00 0.00 48 1021.8
20260503170535 74 142 7.8 14.8 0.00 0.00 0.00 47 1021.9
20260503150537 68 115 2.6 7.0 0.00 0.00 0.00 62 1022.6
20260503131035 60 142 2.6 6.1 0.00 0.00 0.00 74 1022.6
20260503130535 60 134 1.7 6.1 0.00 0.00 0.00 75 1022.6
20260503110535 57 0 0.0 1.7 0.00 0.00 0.00 81 1021.7
20260503081549 59 0 0.9 3.5 0.00 0.00 0.00 76 1021.4
20260503081037 59 78 1.7 2.6 0.00 0.00 0.00 75 1021.4
20260503080538 59 0 0.9 5.2 0.00 0.00 0.00 74 1021.5
20260503072535 61 0 0.0 1.7 0.00 0.00 0.00 71 1021.8
20260503072037 61 129 0.0 1.7 0.00 0.00 0.00 71 1021.8
20260503071552 61 0 0.0 2.6 0.00 0.00 0.00 70 1021.8
20260503071036 61 0 0.0 3.5 0.00 0.00 0.00 70 1021.8
20260503070537 61 129 0.9 5.2 0.00 0.00 0.00 71 1021.6
20260503070111 61 149 1.7 6.1 0.00 0.00 0.00 70 1021.5
20260503060113 64 143 3.5 7.0 0.00 0.00 0.00 65 1021.5
20260503055039 64 129 2.6 6.1 0.00 0.00 0.00 65 1021.6
20260503054559 64 144 2.6 7.0 0.00 0.00 0.00 64 1021.7
20260503054038 64 137 3.5 7.0 0.00 0.00 0.00 64 1021.6
20260503053537 64 132 2.6 6.1 0.00 0.00 0.00 64 1021.5
20260503053043 64 143 2.6 6.1 0.00 0.00 0.00 64 1021.4
20260503052538 64 132 2.6 6.1 0.00 0.00 0.00 64 1021.4
20260503052035 64 146 2.6 6.1 0.00 0.00 0.00 64 1021.5
20260503051553 64 147 2.6 6.1 0.00 0.00 0.00 64 1021.5
20260503051035 64 139 1.7 5.2 0.00 0.00 0.00 63 1021.4
20260503050537 64 132 2.6 5.2 0.00 0.00 0.00 63 1021.4
20260503050049 65 150 1.7 5.2 0.00 0.00 0.00 63 1021.4
20260503045535 65 152 2.6 5.2 0.00 0.00 0.00 63 1021.5
20260503045034 65 144 2.6 6.1 0.00 0.00 0.00 63 1021.4
20260503044548 65 157 2.6 6.1 0.00 0.00 0.00 62 1021.2
20260503044035 65 144 2.6 6.1 0.00 0.00 0.00 62 1021.2
20260503043534 65 153 1.7 6.1 0.00 0.00 0.00 62 1021.4
20260503043052 65 138 1.7 6.1 0.00 0.00 0.00 61 1021.4
20260503042538 65 148 3.5 5.2 0.00 0.00 0.00 61 1021.4
20260503042038 66 134 1.7 4.3 0.00 0.00 0.00 61 1021.3
20260503041545 66 150 1.7 5.2 0.00 0.00 0.00 61 1021.1
20260503041040 66 136 1.7 5.2 0.00 0.00 0.00 61 1021.2
20260503040537 66 152 1.7 6.1 0.00 0.00 0.00 61 1021.1
20260503040049 66 156 1.7 6.1 0.00 0.00 0.00 61 1021.3
20260503035535 66 155 1.7 6.1 0.00 0.00 0.00 60 1021.2
20260503035038 66 171 2.6 6.1 0.00 0.00 0.00 60 1021.2
20260503034601 67 151 2.6 6.1 0.00 0.00 0.00 60 1021.1
20260503034038 67 156 2.6 6.1 0.00 0.00 0.00 59 1021.0